GW1554 Weather Reports


Display with metric or nautical units.
time (UTC)temp
F
wind
direction
speed
MPH
gust
MPH
rain 1hr
in
rain 24hr
in
rain mn
in
humidity
%
barometer
mb
20260506174540 66 266 2.0 11.0 0.00 0.89 0.83 56 1008.8
20260506173042 66 290 4.0 12.0 0.00 0.89 0.83 53 1008.8
20260506171539 67 281 4.0 11.0 0.00 0.89 0.83 53 1008.7
20260506170038 67 231 7.0 14.0 0.00 0.89 0.83 51 1008.7
20260506164538 68 226 4.0 13.0 0.00 0.89 0.83 51 1008.6
20260506163038 68 231 5.0 16.0 0.00 0.89 0.83 51 1008.6
20260506161536 69 193 2.0 15.0 0.00 0.89 0.83 51 1008.4
20260506160037 68 216 6.0 19.0 0.00 0.89 0.83 51 1008.5
20260506154535 69 229 3.0 23.0 0.00 0.89 0.83 51 1008.4
20260506153034 68 188 6.0 17.0 0.00 0.89 0.83 50 1008.4
20260506151534 69 220 5.0 15.0 0.00 0.89 0.83 50 1008.4
20260506150032 68 221 6.0 16.0 0.00 0.89 0.83 49 1008.4
20260506144536 68 225 5.0 17.0 0.00 0.89 0.83 50 1008.5
20260506143031 68 250 9.0 19.0 0.00 0.89 0.83 51 1008.5
20260506141534 68 229 6.0 18.0 0.00 0.89 0.83 52 1008.6
20260506140027 68 199 5.0 14.0 0.00 0.89 0.83 52 1008.5
20260506134525 68 233 6.0 19.0 0.00 0.89 0.83 57 1008.7
20260506133024 68 152 5.0 13.0 0.00 0.89 0.83 56 1008.9
20260506131525 67 236 6.0 15.0 0.00 0.89 0.83 56 1009.1
20260506130021 68 247 6.0 14.0 0.00 0.89 0.83 56 1009.0
20260506124518 67 264 4.0 10.0 0.00 0.89 0.83 62 1009.2
20260506123016 66 243 3.0 10.0 0.00 0.89 0.83 73 1009.3
20260506121513 64 290 4.0 16.0 0.00 0.89 0.83 73 1009.5
20260506120022 64 63 3.0 13.0 0.00 0.89 0.83 74 1009.7
20260506114512 65 141 5.0 12.0 0.00 0.89 0.83 75 1009.7
20260506113011 65 221 5.0 14.0 0.00 0.89 0.83 70 1009.8
20260506111508 64 245 6.0 11.0 0.00 0.89 0.83 73 1010.1
20260506110006 64 305 2.0 15.0 0.00 0.89 0.83 75 1010.1
20260506104505 64 238 3.0 10.0 0.00 0.89 0.83 75 1010.3
20260506103003 63 255 2.0 11.0 0.00 0.89 0.83 76 1010.2
20260506101502 63 219 3.0 9.0 0.00 0.89 0.83 78 1010.3
20260506100106 62 245 2.0 9.0 0.00 0.89 0.83 78 1010.3
20260506094613 62 251 1.0 7.0 0.00 0.91 0.83 78 1010.4
20260506093059 62 250 4.0 9.0 0.00 0.91 0.83 77 1010.3
20260506091556 62 243 5.0 12.0 0.00 0.91 0.83 78 1010.4
20260506090053 61 299 2.0 8.0 0.00 0.91 0.83 84 1010.2
20260506084556 61 281 3.0 8.0 0.00 1.03 0.83 84 1010.1
20260506083056 60 279 0.0 5.0 0.00 1.03 0.83 88 1010.2
20260506081547 59 210 1.0 6.0 0.00 1.03 0.83 87 1010.2
20260506073044 56 217 0.0 1.0 0.01 1.03 0.83 94 1010.2
20260506071538 56 115 0.0 1.0 0.04 1.03 0.83 95 1010.1
20260506061535 54 354 2.0 4.0 0.00 0.99 0.80 94 1009.9
20260506044539 53 347 4.0 9.0 0.00 1.13 0.80 91 1008.9
20260506043030 53 67 0.0 6.0 0.00 1.13 0.80 93 1009.0
20260506041539 53 271 0.0 8.0 0.01 1.13 0.80 92 1009.2
20260506040032 53 325 5.0 12.0 0.09 1.13 0.80 93 1009.1
20260506034531 52 25 3.0 12.0 0.11 1.13 0.80 95 1009.1
20260506033026 52 347 1.0 3.0 0.17 1.13 0.80 96 1009.4
20260506031525 52 11 2.0 4.0 0.24 1.12 0.78 95 1009.7
20260506030023 52 9 0.0 0.0 0.22 1.04 0.69 94 1010.1
20260506024527 52 52 0.0 4.0 0.24 1.03 0.69 94 1010.0
20260506023024 52 16 5.0 9.0 0.17 0.97 0.62 93 1010.1
20260506021521 53 302 1.0 4.0 0.09 0.89 0.54 91 1010.3
20260506020020 54 5 3.0 13.0 0.02 0.81 0.46 87 1009.6
20260506014520 54 8 9.0 16.0 0.01 1.09 0.45 84 1009.3
20260506013020 54 12 7.0 15.0 0.02 1.09 0.45 85 1009.3
20260506011535 54 15 9.0 17.0 0.02 1.09 0.45 86 1009.3
20260506010015 53 13 0.0 5.0 0.02 1.08 0.44 88 1009.9
20260506004529 54 71 1.0 5.0 0.02 1.24 0.44 85 1010.2
20260506003013 55 340 5.0 13.0 0.00 1.22 0.43 79 1010.1
20260506001510 54 6 9.0 16.0 0.01 1.22 0.43 83 1010.4
20260506000010 54 56 9.0 16.0 0.06 1.22 0.43 84 1010.5
20260505234509 54 356 9.0 17.0 0.16 1.31 0.43 86 1010.7
20260505233004 53 30 10.0 19.0 0.26 1.31 0.43 88 1011.1
20260505231632 53 356 7.0 14.0 0.33 1.30 0.42 88 1011.8
20260505230100 53 34 3.0 7.0 0.36 1.24 0.36 93 1012.2
20260505224552 54 309 2.0 6.0 0.32 1.17 0.27 95 1012.7
20260505223050 55 280 0.0 3.0 0.21 1.06 0.16 95 1012.6
20260505221559 55 297 0.0 3.0 0.13 0.98 0.08 94 1012.9
20260505220056 56 303 1.0 3.0 0.06 0.90 0.00 92 1012.8
20260505214551 56 39 2.0 9.0 0.00 0.84 0.84 91 1012.6
20260505213042 55 350 2.0 6.0 0.00 0.84 0.84 93 1012.8
20260505211542 55 337 0.0 1.0 0.00 0.84 0.84 93 1013.3
20260505210049 55 285 0.0 1.0 0.00 0.84 0.84 92 1013.4
20260505204551 55 128 0.0 3.0 0.00 0.87 0.84 92 1013.1
20260505203041 55 315 0.0 4.0 0.00 0.87 0.84 93 1013.2
20260505201543 55 352 0.0 1.0 0.00 0.87 0.84 94 1012.9
20260505200040 55 325 0.0 5.0 0.00 0.87 0.84 94 1013.0
20260505194539 55 1 0.0 1.0 0.00 0.92 0.84 95 1013.0
20260505193042 56 359 0.0 2.0 0.00 0.92 0.84 94 1012.9
20260505191538 56 136 0.0 4.0 0.00 0.92 0.84 94 1012.6
20260505190037 57 349 0.0 3.0 0.00 0.92 0.84 94 1012.5
20260505184537 57 39 0.0 1.0 0.00 1.01 0.84 93 1012.8
20260505183047 57 98 0.0 3.0 0.00 1.01 0.84 93 1012.9
20260505181535 58 88 1.0 4.0 0.00 1.01 0.84 92 1012.8
20260505180034 58 244 0.0 2.0 0.00 1.01 0.84 92 1012.5